Regional Weather Roundup
Issued by NWS Newport/Morehead, NC

Current Version | Previous Version | Graphics & Text | Print | Product List | Glossary On
Versions: 1 2 3 4 5 6 7 8 9 10 11 12 13 14 15 16 17 18 19 20 21 22 23 24 25 26 27 28 29 30 31 32 33 34 35 36 37 38 39 40 41 42 43 44 45 46 47 48 49 50
000 ASUS42 KMHX 230813 RWRMHX WEATHER ROUNDUP FOR EASTERN NORTH CAROLINA NATIONAL WEATHER SERVICE NEWPORT/MOREHEAD CITY NC 400 AM EDT SAT SEP 23 2017 NOTE: "FAIR" INDICATES FEW OR NO CLOUDS BELOW 12,000 FEET WITH NO SIGNIFICANT WEATHER AND/OR OBSTRUCTIONS TO VISIBILITY NCZ015>017-031-032-045>047-102-103-230900- NORTH COAST CITY SKY/WX TMP DP RH WIND PRES REMARKS EDENTON CLEAR 66 64 94 CALM 30.01S ELIZABETH CITY PTCLDY 64 64 100 CALM 30.00S FOG KITTY HAWK SUNNY 67 61 80 CALM 29.99S MANTEO CLEAR 64 62 93 CALM 30.01S $$ NCZ045>047-081-094-103-104-230900- CENTRAL COAST CITY SKY/WX TMP DP RH WIND PRES REMARKS FRISCO PTCLDY 71 70 96 CALM 29.99F FOG $$ NCZ095-097-098-100-101-230900- SOUTHERN COAST CITY SKY/WX TMP DP RH WIND PRES REMARKS BEAUFORT CLEAR 71 71 100 CALM 30.00S CEDAR ISLAND NOT AVBL JACKSONVILLE CLEAR 69 69 100 CALM 30.00S PINEY ISLAND N/A N/A N/A N/A S5 30.00S WILMINGTON PTCLDY 68 67 96 CALM 30.00F $$ NCZ011>013-027>030-043-044-078>080-089-090>093-098-230900- COASTAL PLAIN CITY SKY/WX TMP DP RH WIND PRES REMARKS AHOSKIE CLEAR 60 60 100 CALM 30.02S CLINTON CLEAR 67 67 100 CALM 30.02S ELIZABETHTOWN NOT AVBL GOLDSBORO CLEAR 68 68 100 CALM 29.99F FOG GREENVILLE FOG 64 64 100 CALM 30.03S VSB 1/4 HAVELOCK CLEAR 70 69 97 W3 30.01F KENANSVILLE CLEAR 64 63 94 CALM 30.01F FOG KINSTON CLEAR 65 64 97 CALM 30.01F FOG NEW BERN CLEAR 68 68 100 CALM 30.01F RICHLANDS PTCLDY 65 64 97 CALM 30.01F FOG ROCKY MOUNT FOG 63 63 100 CALM 30.02F VSB 1/4 WASHINGTON CLEAR 67 66 97 CALM 30.01F WHITEVILLE CLEAR 68 67 97 CALM 30.00F $$ AMZ130-135-150-152-154-156-158-170-250-252-270-ANZ085-086-088-633-658-670-230900- MARINE OBSERVATIONS STATION/POSITION TIME TEMP WIND PRES WAVE SWELL AIR SEA DIR/SP/G HT/PER HT/PER (UTC) (F) (DEG/KT/KT) (MB) (FT/S) (FT/S) CHESAPEAKE LIGHT NOT AVBL 64 E VA BEACH 0750 70 69 280/ 8/ 10 1015.7 8/11 8/11 DUCK 0748 74 76 240/ 4/ 5 1015.3 2 E DUCK 0800 76 N/A 5/11 3/11 OREGON INLET 0736 72 78 120/ 2/ 3 1015.6 13E OREGON INLT 0748 74 N/A 7/11 7/11 HATTERAS CG 0748 76 79 230/ 4/ 5 1015.5 DIAMOND BUOY 0750 76 77 330/ 2/ 4 1015.5 7/15 7/15 CAPE LOOKOUT 0800 77 280/ 4/ 4 1015.4 BEAUFORT LAB 0748 75 77 340/ 3/ 4 1015.2 30 SE NEW RVR IN 0708 79 260/ 2/ 4 1015.7 30 SE NEW RVR IN NOT AVBL 27 SE WRIGHTSVLE 0708 80 80 30/ 2/ 4 1015.9 5 SE WRIGHTSVLE 0708 78 79 340/ 8/ 10 1015.6 225 S CAPE HAT 0750 78 79 60/ 14/ 16 1013.7 10/11 10/11 41 SE CHARLESTON 0750 81 82 80/ 8/ 12 1014.0 7/14 7/14 $$

USA.gov is the U.S. government's official web portal to all federal, state and local government web resources and services.